When you browse on this site, cookies collect data to enhance your experience and personalize the content and advertising you see.
Visit our Privacy Policy to learn more. By continuing to use the site, you agree to this use of cookies and data.
  • In Switzerland
  • List of Countries
  • For 7 days
  • Water Temperature
  • Satellite Maps
  • Weather Map
  • Weather Widgets
  • user-avatar
    Login

    Hourly Weather Lubango

    Today, 23 January, Wednesday

    Time Temperature Precipitation Wind Pressure Humidity
    00:00 +16°C° 0.3 mm 1 mps 608 mmHg 86%
    01:00 +16°C° 0 mm 1 mps 608 mmHg 87%
    02:00 +15°C° 0.5 mm 1 mps 608 mmHg 88%
    03:00 +15°C° 0.5 mm 1 mps 608 mmHg 89%
    04:00 +15°C° 0.5 mm 1 mps 608 mmHg 89%
    05:00 +15°C° 0.8 mm 1 mps 608 mmHg 89%
    06:00 +16°C° 0.8 mm 1 mps 608 mmHg 89%
    07:00 +16°C° 0 mm 1 mps 609 mmHg 89%
    08:00 +19°C° 0.2 mm 1 mps 609 mmHg 78%
    09:00 +21°C° 0.2 mm 1 mps 610 mmHg 68%
    10:00 +23°C° 0.2 mm 1 mps 611 mmHg 58%
    11:00 +25°C° 0.2 mm 1 mps 611 mmHg 53%
    12:00 +27°C° 0.2 mm 1 mps 611 mmHg 48%
    13:00 +28°C° 0.2 mm 2 mps 611 mmHg 43%
    14:00 +27°C° 0.2 mm 2 mps 610 mmHg 48%
    15:00 +25°C° 0.2 mm 2 mps 609 mmHg 53%
    16:00 +24°C° 0.2 mm 2 mps 608 mmHg 58%
    17:00 +23°C° 0.1 mm 2 mps 608 mmHg 64%
    18:00 +20°C° 0.1 mm 2 mps 607 mmHg 69%
    19:00 +19°C° 0.1 mm 2 mps 607 mmHg 75%
    20:00 +19°C° 0 mm 1 mps 607 mmHg 77%
    21:00 +18°C° 0 mm 1 mps 607 mmHg 79%
    22:00 +16°C° 0 mm 1 mps 608 mmHg 81%
    23:00 +16°C° 0 mm 1 mps 607 mmHg 82%

    Tomorrow, 24 January, Thursday

    Time Temperature Precipitation Wind Pressure Humidity
    00:00 +16°C° 0 mm 1 mps 607 mmHg 82%
    01:00 +16°C° 0 mm 1 mps 607 mmHg 82%
    02:00 +15°C° 0 mm 1 mps 607 mmHg 83%
    03:00 +15°C° 0 mm 1 mps 607 mmHg 83%
    04:00 +15°C° 0 mm 1 mps 606 mmHg 83%
    05:00 +15°C° 0 mm 0 mps 607 mmHg 80%
    06:00 +15°C° 0 mm 0 mps 608 mmHg 77%
    07:00 +16°C° 0 mm 0 mps 608 mmHg 74%
    08:00 +19°C° 0 mm 0 mps 609 mmHg 65%
    09:00 +23°C° 0 mm 1 mps 610 mmHg 56%
    10:00 +26°C° 0 mm 1 mps 611 mmHg 47%
    11:00 +27°C° 0 mm 1 mps 611 mmHg 44%
    12:00 +28°C° 0 mm 1 mps 611 mmHg 40%
    13:00 +29°C° 0 mm 2 mps 611 mmHg 37%
    14:00 +27°C° 0 mm 2 mps 610 mmHg 43%
    15:00 +25°C° 0 mm 2 mps 608 mmHg 49%
    16:00 +24°C° 0 mm 2 mps 607 mmHg 54%
    17:00 +21°C° 0 mm 2 mps 607 mmHg 59%
    18:00 +20°C° 0 mm 2 mps 607 mmHg 63%
    19:00 +20°C° 0 mm 1 mps 607 mmHg 68%
    20:00 +19°C° 0 mm 1 mps 607 mmHg 72%
    21:00 +18°C° 0 mm 1 mps 607 mmHg 75%
    22:00 +15°C° 0 mm 0 mps 607 mmHg 79%
    23:00 +15°C° 0 mm 0 mps 607 mmHg 79%

    Day after tomorrow, 25 January, Friday

    Time Temperature Precipitation Wind Pressure Humidity
    00:00 +15°C° 0 mm 0 mps 607 mmHg 79%
    01:00 +15°C° 0 mm 0 mps 607 mmHg 79%
    02:00 +15°C° 0 mm 0 mps 607 mmHg 78%
    03:00 +15°C° 0 mm 0 mps 607 mmHg 77%
    04:00 +16°C° 0 mm 0 mps 607 mmHg 76%
    05:00 +16°C° 0 mm 0 mps 607 mmHg 75%
    06:00 +16°C° 0 mm 0 mps 608 mmHg 74%
    07:00 +19°C° 0 mm 1 mps 608 mmHg 73%
    08:00 +21°C° 0 mm 1 mps 609 mmHg 66%
    09:00 +23°C° 0 mm 1 mps 610 mmHg 59%
    10:00 +25°C° 0 mm 1 mps 611 mmHg 52%
    11:00 +26°C° 0.1 mm 1 mps 611 mmHg 48%
    12:00 +27°C° 0.1 mm 1 mps 611 mmHg 45%
    13:00 +28°C° 0.1 mm 2 mps 611 mmHg 41%
    14:00 +26°C° 0.2 mm 2 mps 609 mmHg 47%
    15:00 +24°C° 0.2 mm 2 mps 608 mmHg 54%
    16:00 +23°C° 0.2 mm 2 mps 607 mmHg 61%
    17:00 +21°C° 0 mm 2 mps 607 mmHg 64%
    18:00 +21°C° 0 mm 1 mps 607 mmHg 68%
    19:00 +20°C° 0 mm 1 mps 608 mmHg 71%
    20:00 +19°C° 0 mm 1 mps 608 mmHg 76%
    21:00 +18°C° 0 mm 1 mps 608 mmHg 81%
    22:00 +16°C° 0 mm 1 mps 608 mmHg 85%
    23:00 +16°C° 0.2 mm 1 mps 608 mmHg 86%

    26 January, Saturday

    Time Temperature Precipitation Wind Pressure Humidity
    00:00 +15°C° 0.2 mm 0 mps 608 mmHg 87%
    01:00 +15°C° 0.2 mm 0 mps 608 mmHg 88%
    02:00 +15°C° 0.3 mm 0 mps 608 mmHg 88%
    03:00 +15°C° 0.3 mm 0 mps 607 mmHg 87%
    04:00 +15°C° 0.3 mm 0 mps 607 mmHg 87%
    05:00 +16°C° 0.6 mm 0 mps 608 mmHg 84%
    06:00 +16°C° 0.6 mm 0 mps 608 mmHg 82%
    07:00 +17°C° 0.6 mm 0 mps 609 mmHg 79%
    08:00 +21°C° 0.4 mm 1 mps 610 mmHg 70%
    09:00 +23°C° 0.4 mm 1 mps 611 mmHg 61%
    10:00 +26°C° 0.4 mm 1 mps 612 mmHg 52%
    11:00 +26°C° 0.6 mm 1 mps 612 mmHg 49%
    12:00 +27°C° 0.6 mm 1 mps 611 mmHg 46%
    13:00 +28°C° 0.6 mm 1 mps 611 mmHg 42%
    14:00 +26°C° 0.7 mm 2 mps 610 mmHg 51%
    15:00 +24°C° 0.7 mm 2 mps 609 mmHg 59%
    16:00 +21°C° 0.7 mm 2 mps 608 mmHg 68%
    17:00 +20°C° 0.4 mm 2 mps 608 mmHg 73%
    18:00 +19°C° 0.4 mm 2 mps 608 mmHg 78%
    19:00 +18°C° 0.4 mm 2 mps 608 mmHg 83%
    20:00 +18°C° 0.2 mm 2 mps 609 mmHg 87%
    21:00 +18°C° 0.2 mm 1 mps 609 mmHg 90%
    22:00 +16°C° 0.2 mm 1 mps 609 mmHg 94%
    23:00 +16°C° 0 mm 1 mps 609 mmHg 94%

    27 January, Sunday

    Time Temperature Precipitation Wind Pressure Humidity
    00:00 +16°C° 0 mm 1 mps 609 mmHg 95%
    01:00 +16°C° 0 mm 1 mps 609 mmHg 95%
    02:00 +16°C° 0.1 mm 1 mps 608 mmHg 95%
    03:00 +16°C° 0.1 mm 1 mps 608 mmHg 95%
    04:00 +15°C° 0.1 mm 1 mps 607 mmHg 94%
    05:00 +15°C° 0.1 mm 0 mps 608 mmHg 91%
    06:00 +16°C° 0.1 mm 0 mps 609 mmHg 87%
    07:00 +16°C° 0.1 mm 0 mps 609 mmHg 83%
    08:00 +19°C° 0.1 mm 0 mps 610 mmHg 71%
    09:00 +23°C° 0.1 mm 1 mps 611 mmHg 59%
    10:00 +26°C° 0.1 mm 1 mps 612 mmHg 47%
    11:00 +26°C° 0.2 mm 1 mps 612 mmHg 47%
    12:00 +27°C° 0.2 mm 1 mps 611 mmHg 46%
    13:00 +27°C° 0.2 mm 2 mps 611 mmHg 46%
    14:00 +26°C° 1 mm 2 mps 610 mmHg 51%
    15:00 +25°C° 1 mm 2 mps 609 mmHg 57%
    16:00 +23°C° 1 mm 2 mps 608 mmHg 62%
    17:00 +23°C° 0.2 mm 2 mps 608 mmHg 65%
    18:00 +21°C° 0.2 mm 2 mps 608 mmHg 68%
    19:00 +21°C° 0.2 mm 1 mps 608 mmHg 71%
    20:00 +20°C° 0 mm 1 mps 608 mmHg 77%
    21:00 +19°C° 0 mm 1 mps 608 mmHg 83%
    22:00 +18°C° 0 mm 1 mps 608 mmHg 88%
    23:00 +16°C° 0 mm 1 mps 608 mmHg 90%

    28 January, Monday

    Time Temperature Precipitation Wind Pressure Humidity
    00:00 +16°C° 0 mm 1 mps 608 mmHg 92%
    01:00 +15°C° 0 mm 1 mps 607 mmHg 94%
    02:00 +15°C° 0 mm 1 mps 607 mmHg 94%
    03:00 +15°C° 0 mm 1 mps 607 mmHg 94%
    04:00 +15°C° 0 mm 1 mps 607 mmHg 93%
    05:00 +15°C° 0 mm 0 mps 607 mmHg 89%
    06:00 +16°C° 0 mm 0 mps 608 mmHg 84%
    07:00 +16°C° 0 mm 0 mps 609 mmHg 79%
    08:00 +19°C° 0 mm 0 mps 610 mmHg 67%
    09:00 +24°C° 0 mm 1 mps 611 mmHg 56%
    10:00 +27°C° 0 mm 1 mps 612 mmHg 44%
    11:00 +28°C° 0 mm 1 mps 611 mmHg 42%
    12:00 +28°C° 0 mm 1 mps 611 mmHg 40%
    13:00 +29°C° 0 mm 1 mps 611 mmHg 38%
    14:00 +27°C° 0.1 mm 2 mps 609 mmHg 43%
    15:00 +26°C° 0.1 mm 2 mps 608 mmHg 49%
    16:00 +24°C° 0.1 mm 2 mps 607 mmHg 54%
    17:00 +23°C° 0.1 mm 2 mps 607 mmHg 60%
    18:00 +21°C° 0.1 mm 2 mps 607 mmHg 65%
    19:00 +20°C° 0.1 mm 1 mps 607 mmHg 70%
    20:00 +20°C° 0.1 mm 1 mps 608 mmHg 75%
    21:00 +19°C° 0.1 mm 1 mps 608 mmHg 79%
    22:00 +18°C° 0.1 mm 1 mps 608 mmHg 83%
    23:00 +18°C° 0 mm 1 mps 608 mmHg 84%
    Show more